sat.trackr.live / text

‹ back to catalog

ICEYE-X73

NORAD 68496 · 2026-067CJ

PAYLOAD ACTIVE UNKNOWN

§ Identity

Operator
Country
POR
Launch date
2026-03-30
Launch site
AFWTR
Launch vehicle
Mass (kg)
RCS (m²)

External: N2YO · Heavens-Above · Gunter

§ Orbital elements

Epoch: 2026-09-20T02:31:16.623264Z

Period
96.48 min
Inclination
97.7714°
Eccentricity
0.0002370
Mean motion
14.92585966 rev/d
Perigee alt
588.2 km
Apogee alt
591.5 km
Semi-major
6,968.0 km
B*
1.6036e-4
RAAN
220.0877°
Arg perigee
35.8658°
Mean anomaly
324.2720°
Rev number
2,588

§ Raw data

ICEYE-X731 68496U 26067CJ  26263.10505351  .00001593  00000+0  16036-3 0  99992 68496  97.7714 220.0877 0002370  35.8658 324.2720 14.92585966 25881

JSON: /api/v1/satellites/68496 · /tle

For live sub-satellite position, see the globe view (requires WebGL).

§ Visibility from observer

Set your observer location to see the next 7 days of passes ≥ 10°. The values pass through the URL so the page stays shareable.

No JS? Fill the form by hand. The geolocation button needs JavaScript.